Hourly Weather Godzimierz

Today, 3 December, Thursday

Time Temperature Precipitation Wind Pressure Humidity
00:00 -5°C° 0 mm 4 mps 748 mmHg 73%
01:00 -5°C° 0 mm 4 mps 748 mmHg 73%
02:00 -5°C° 0 mm 4 mps 747 mmHg 74%
03:00 -5°C° 0 mm 4 mps 746 mmHg 75%
04:00 -7°C° 0 mm 4 mps 746 mmHg 76%
05:00 -7°C° 0 mm 4 mps 745 mmHg 76%
06:00 -7°C° 0 mm 4 mps 745 mmHg 76%
07:00 -7°C° 0 mm 5 mps 745 mmHg 76%
08:00 -6°C° 0 mm 5 mps 744 mmHg 74%
09:00 -6°C° 0 mm 5 mps 744 mmHg 72%
10:00 -5°C° 0 mm 5 mps 744 mmHg 71%
11:00 -5°C° 0.1 mm 5 mps 743 mmHg 75%
12:00 -5°C° 0.1 mm 5 mps 742 mmHg 78%
13:00 -5°C° 0.1 mm 5 mps 742 mmHg 82%
14:00 -5°C° 0.2 mm 5 mps 741 mmHg 85%
15:00 -5°C° 0.2 mm 5 mps 741 mmHg 88%
16:00 -4°C° 0.2 mm 6 mps 740 mmHg 91%
17:00 -4°C° 0 mm 5 mps 740 mmHg 90%
18:00 -4°C° 0 mm 5 mps 740 mmHg 88%
19:00 -4°C° 0 mm 5 mps 740 mmHg 87%
20:00 -4°C° 0 mm 4 mps 739 mmHg 85%
21:00 -4°C° 0 mm 4 mps 739 mmHg 84%
22:00 -4°C° 0 mm 4 mps 739 mmHg 82%
23:00 -4°C° 0 mm 4 mps 739 mmHg 82%

Tomorrow, 4 December, Friday

Time Temperature Precipitation Wind Pressure Humidity
00:00 -4°C° 0 mm 4 mps 738 mmHg 82%
01:00 -4°C° 0 mm 4 mps 738 mmHg 82%
02:00 -3°C° 0 mm 4 mps 738 mmHg 84%
03:00 -3°C° 0 mm 4 mps 737 mmHg 85%
04:00 -3°C° 0 mm 4 mps 736 mmHg 86%
05:00 -3°C° 0 mm 4 mps 736 mmHg 88%
06:00 -2°C° 0 mm 4 mps 736 mmHg 89%
07:00 -2°C° 0 mm 4 mps 736 mmHg 91%
08:00 -1°C° 0 mm 5 mps 736 mmHg 89%
09:00 -1°C° 0 mm 5 mps 736 mmHg 88%
10:00 -1°C° 0 mm 5 mps 735 mmHg 87%
11:00 0°C° 0.2 mm 5 mps 735 mmHg 87%
12:00 0°C° 0.2 mm 5 mps 735 mmHg 88%
13:00 0°C° 0.2 mm 5 mps 735 mmHg 88%
14:00 0°C° 0.3 mm 5 mps 735 mmHg 88%
15:00 0°C° 0.3 mm 5 mps 734 mmHg 88%
16:00 0°C° 0.3 mm 4 mps 734 mmHg 87%
17:00 0°C° 0 mm 4 mps 734 mmHg 88%
18:00 0°C° 0 mm 4 mps 734 mmHg 88%
19:00 0°C° 0 mm 4 mps 734 mmHg 88%
20:00 0°C° 0 mm 4 mps 735 mmHg 88%
21:00 0°C° 0 mm 5 mps 735 mmHg 88%
22:00 +1°C° 0 mm 5 mps 735 mmHg 88%
23:00 +1°C° 0 mm 5 mps 735 mmHg 88%

Day after tomorrow, 5 December, Saturday

Time Temperature Precipitation Wind Pressure Humidity
00:00 +1°C° 0 mm 5 mps 735 mmHg 88%
01:00 +1°C° 0 mm 6 mps 736 mmHg 87%
02:00 +1°C° 0 mm 6 mps 736 mmHg 87%
03:00 +1°C° 0 mm 6 mps 736 mmHg 86%
04:00 +1°C° 0 mm 6 mps 736 mmHg 86%
05:00 +2°C° 0 mm 6 mps 736 mmHg 85%
06:00 +2°C° 0 mm 6 mps 736 mmHg 85%
07:00 +2°C° 0 mm 6 mps 736 mmHg 84%
08:00 +2°C° 0 mm 6 mps 736 mmHg 83%
09:00 +3°C° 0 mm 6 mps 737 mmHg 82%
10:00 +3°C° 0 mm 6 mps 737 mmHg 81%
11:00 +4°C° 0 mm 6 mps 737 mmHg 79%
12:00 +4°C° 0 mm 7 mps 737 mmHg 77%
13:00 +5°C° 0 mm 7 mps 738 mmHg 75%
14:00 +5°C° 0 mm 7 mps 738 mmHg 76%
15:00 +5°C° 0 mm 7 mps 738 mmHg 77%
16:00 +5°C° 0 mm 6 mps 738 mmHg 78%
17:00 +5°C° 0 mm 6 mps 738 mmHg 78%
18:00 +5°C° 0 mm 6 mps 739 mmHg 79%
19:00 +5°C° 0 mm 6 mps 739 mmHg 80%
20:00 +5°C° 0 mm 6 mps 739 mmHg 80%
21:00 +4°C° 0 mm 6 mps 739 mmHg 80%
22:00 +4°C° 0 mm 6 mps 739 mmHg 81%
23:00 +4°C° 0 mm 6 mps 739 mmHg 81%

6 December, Sunday

Time Temperature Precipitation Wind Pressure Humidity
00:00 +4°C° 0 mm 6 mps 739 mmHg 82%
01:00 +4°C° 0 mm 6 mps 739 mmHg 82%
02:00 +4°C° 0 mm 6 mps 739 mmHg 82%
03:00 +4°C° 0 mm 6 mps 739 mmHg 82%
04:00 +4°C° 0 mm 6 mps 739 mmHg 82%
05:00 +4°C° 0 mm 6 mps 740 mmHg 82%
06:00 +4°C° 0 mm 6 mps 740 mmHg 82%
07:00 +4°C° 0 mm 6 mps 740 mmHg 83%
08:00 +4°C° 0 mm 6 mps 740 mmHg 82%
09:00 +5°C° 0 mm 6 mps 741 mmHg 81%
10:00 +5°C° 0 mm 7 mps 741 mmHg 80%
11:00 +6°C° 0 mm 7 mps 741 mmHg 77%
12:00 +6°C° 0 mm 7 mps 741 mmHg 74%
13:00 +8°C° 0 mm 7 mps 741 mmHg 72%
14:00 +6°C° 0 mm 7 mps 741 mmHg 75%
15:00 +5°C° 0 mm 7 mps 741 mmHg 78%
16:00 +4°C° 0 mm 7 mps 741 mmHg 81%
17:00 +4°C° 0 mm 7 mps 741 mmHg 82%
18:00 +3°C° 0 mm 7 mps 741 mmHg 83%
19:00 +3°C° 0 mm 7 mps 741 mmHg 84%
20:00 +3°C° 0 mm 7 mps 741 mmHg 84%
21:00 +2°C° 0 mm 7 mps 741 mmHg 83%
22:00 +2°C° 0 mm 7 mps 741 mmHg 82%
23:00 +2°C° 0 mm 7 mps 741 mmHg 83%

7 December, Monday

Time Temperature Precipitation Wind Pressure Humidity
00:00 +2°C° 0 mm 7 mps 741 mmHg 83%
01:00 0°C° 0 mm 7 mps 741 mmHg 83%
02:00 0°C° 0 mm 7 mps 740 mmHg 83%
03:00 0°C° 0 mm 7 mps 740 mmHg 83%
04:00 0°C° 0 mm 7 mps 740 mmHg 83%
05:00 0°C° 0 mm 7 mps 740 mmHg 82%
06:00 0°C° 0 mm 7 mps 740 mmHg 82%
07:00 0°C° 0 mm 7 mps 740 mmHg 81%
08:00 0°C° 0 mm 7 mps 739 mmHg 81%
09:00 0°C° 0 mm 7 mps 739 mmHg 81%
10:00 +2°C° 0 mm 7 mps 739 mmHg 81%
11:00 +2°C° 0 mm 7 mps 739 mmHg 81%
12:00 +3°C° 0 mm 7 mps 739 mmHg 81%
13:00 +3°C° 0 mm 6 mps 739 mmHg 80%
14:00 +4°C° 0 mm 6 mps 740 mmHg 81%
15:00 +4°C° 0 mm 6 mps 740 mmHg 82%
16:00 +4°C° 0 mm 6 mps 741 mmHg 82%
17:00 +5°C° 0 mm 5 mps 741 mmHg 83%
18:00 +4°C° 0 mm 4 mps 742 mmHg 83%
19:00 +4°C° 0 mm 3 mps 743 mmHg 83%
20:00 +3°C° 0 mm 3 mps 744 mmHg 86%
21:00 +3°C° 0 mm 2 mps 744 mmHg 89%
22:00 +3°C° 0 mm 2 mps 745 mmHg 92%
23:00 +2°C° 0 mm 2 mps 745 mmHg 92%

8 December, Tuesday

Time Temperature Precipitation Wind Pressure Humidity
00:00 +2°C° 0 mm 2 mps 746 mmHg 92%
01:00 +2°C° 0 mm 2 mps 746 mmHg 92%
02:00 +1°C° 0 mm 2 mps 746 mmHg 92%
03:00 +1°C° 0 mm 2 mps 746 mmHg 92%
04:00 +1°C° 0 mm 2 mps 746 mmHg 92%
05:00 +1°C° 0 mm 2 mps 746 mmHg 92%
06:00 +1°C° 0 mm 2 mps 746 mmHg 92%
07:00 +1°C° 0 mm 2 mps 746 mmHg 91%
08:00 0°C° 0 mm 3 mps 746 mmHg 92%
09:00 +1°C° 0 mm 3 mps 746 mmHg 93%
10:00 +1°C° 0 mm 3 mps 746 mmHg 93%
11:00 +1°C° 0 mm 3 mps 746 mmHg 93%
12:00 +2°C° 0 mm 3 mps 746 mmHg 94%
13:00 +2°C° 0 mm 3 mps 746 mmHg 94%
14:00 +2°C° 0 mm 3 mps 746 mmHg 93%
15:00 +2°C° 0 mm 3 mps 746 mmHg 92%
16:00 +2°C° 0 mm 3 mps 746 mmHg 91%
17:00 +1°C° 0 mm 4 mps 746 mmHg 90%
18:00 +1°C° 0 mm 4 mps 745 mmHg 90%
19:00 +1°C° 0 mm 4 mps 745 mmHg 89%
20:00 0°C° 0 mm 4 mps 745 mmHg 88%
21:00 0°C° 0 mm 4 mps 745 mmHg 88%
22:00 0°C° 0 mm 4 mps 745 mmHg 87%
23:00 0°C° 0 mm 4 mps 745 mmHg 87%
Show more

We Need Your Consent

Meteoprog and our Service Providers may store and access personal data such as cookies, device identifiers or other similar technologies on your device and process such data to personalise content and ads, as well as provide social media features and to analyse the traffic.

  • Store and/or access information on your device

    Cookies, device identifiers or other information can be stored or accessed on your device for the purposes indicated above.

  • Personalised ads and content, ad and content measurement, audience insights, and products development

    Ads and content can be personalised based on a profile. More data can be added to better personalise ads and content. Ad and content performance can be measured. Insights about the audience who saw the ads and content can be derived. Such data can be used to develop or improve user’s experience, systems and software.

By clicking ‘I Agree’ you will allow the use of indicated cookies, device identifiers, web beacons or other similar technologies. Your settings can be changed in the browser on your device.

For certain purposes, legitimate interests may be relied on, rather than consent. You can read more about this in our Privacy and Cookie Policy.